www.pogodaiklimat.ru

Погода и климат >> Архив погоды >> Колумбия >> Картахена


ПОГОДА в Картахене

  • Прогноз погоды в Картахене
  • Монитор погоды в Картахене

АРХИВ ПОГОДЫ в Картахене

Время (UTC), дата Ветер
(напр.,м/с)
 
Видим.   Явления Облачность Т
(С)
Тd
(С)
f
(%)
Тe
(С)
Тes
(С)
Комфортность P
(гПа)
Po
(гПа)
Тmin
(С)
Tmax
(С)
R
(мм)
R24
(мм)
S
(см)
18 17.03 С 9 11 км мгла 1/1 600 м
[Cu hum]
+31.4 +23.5 63 +42 +44 опасность
перегрева
1007.9 1007.7
21 17.03 С 7 12 км мгла 3/0
[Ci fib]
+30.0 +23.5 68 +41 +42 опасность
перегрева
1005.4 1005.2
00 18.03 СВ 6 12 км мгла ясно +26.8 +23.2 81 +36 +36 очень
душно
1006.1 1005.9 +31.4
03 18.03 СВ 5 12 км мгла 5/5 400 м
[Sc]
+25.9 +23.3 86 +35 +35 очень
душно
1008.5 1008.3
06 18.03 СВ 5 12 км мгла 6/4 400 м
[Sc Ac trans]
+25.6 +23.2 87 +34 +34 очень
душно
1008.0 1007.8
09 18.03 В 2 10 км мгла 6/3 400 м
[Sc Ac As Cs]
+24.8 +23.3 91 +33 +33 очень
душно
1006.5 1006.3
12 18.03 В 2 10 км мгла 3/0
[Ci fib]
+25.0 +23.6 92 +34 +35 очень
душно
1008.4 1008.2 +24.3
15 18.03 С 4 10 км мгла 1/0
[Ci fib]
+29.2 +23.5 71 +40 +50 очень
душно
1010.1 1009.9
18 18.03 С 6 12 км мгла 1/1 600 м
[Cu hum]
+31.1 +23.6 64 +42 +49 опасность
перегрева
1008.3 1008.1
21 18.03 СВ 7 12 км ясно +30.2 +23.3 67 +41 +42 опасность
перегрева
1005.6 1005.4
00 19.03 СВ 7 9000 м мгла 1/0
[Ci fib]
+26.4 +23.3 83 +36 +36 очень
душно
1007.0 1006.8 +32.1
03 19.03 СВ 5 8000 м ясно +25.9 +23.3 86 +35 +35 очень
душно
1009.6 1009.4
06 19.03 СВ 5 8000 м ясно +25.9 +23.3 86 +35 +35 очень
душно
1009.6 1009.4
09 19.03 С 2 6000 м мгла 6/6 400 м
[St]
+25.4 +23.1 87 +34 +34 очень
душно
1006.9 1006.7
12 19.03 В 3 7000 м мгла 8/1 450 м
[St Cs]
+24.5 +22.8 90 +32 +33 очень
душно
1009.5 1009.3 +24.2
15 19.03 В 2 7000 м мгла 6/4 300 м
[Sc diur, vesp Ci sp]
+30.4 +23.9 68 +42 +51 опасность
перегрева
1011.3 1011.1
18 19.03 З 5 8000 м мгла 5/1 500 м
[St Ci fib]
+30.2 +25.0 74 +44 +52 опасность
перегрева
1010.4 1010.2
21 19.03 С 3 9000 м мгла 5/1 450 м
[Cu Sc Cs]
+28.6 +24.3 78 +40 +44 очень
душно
1008.1 1007.9
00 20.03 С 2 10 км мгла 6/3 500 м
[Sc diur, vesp Ci fib]
+27.6 +23.7 79 +38 +38 очень
душно
1009.6 1009.4 +32.1
03 20.03 СВ 3 10 км мгла 5/3 450 м
[Sc diur, vesp Ci fib]
+26.1 +23.5 86 +35 +35 очень
душно
1011.8 1011.6
06 20.03 С 3 10 км мгла 4/1 500 м
[Sc Ci fib]
+25.6 +23.2 87 +34 +34 очень
душно
1011.0 1010.8
09 20.03 СВ 2 10 км мгла 8/3 540 м
[Cu hum As trans Ci fib]
+25.0 +23.2 90 +33 +33 очень
душно
1009.7 1009.5
12 20.03 В 1 7000 м мгла 6/3 500 м
[Sc Ac trans Ci fib]
+25.2 +23.8 92 +34 +35 очень
душно
1011.4 1011.2 +24.7
15 20.03 нст 1 9000 м мгла 4/1 500 м
[Cu Sc Ci fib]
+31.0 +23.3 64 +42 +58 опасность
перегрева
1012.9 1012.7
18 20.03 С 6 10 км мгла 9/4 450 м
[Cu Sc Cs]
+30.8 +24.0 67 +42 +46 опасность
перегрева
1010.6 1010.4
21 20.03 С 8 10 км мгла 6/3 450 м
[Cu Sc Cs]
+29.8 +24.0 71 +41 +42 опасность
перегрева
1007.8 1007.6
00 21.03 СВ 4 12 км мгла 6/1 500 м
[Cu hum Ac trans Ci sp]
+26.4 +23.1 82 +35 +35 очень
душно
1009.4 1009.2 +31.0
03 21.03 СВ 5 12 км мгла 4/1 500 м
[Cu hum Cs]
+26.0 +23.2 85 +35 +35 очень
душно
1011.4 1011.2
06 21.03 СВ 4 12 км мгла 4/1 500 м
[Cu hum Ci fib]
+25.4 +22.9 86 +34 +34 очень
душно
1010.5 1010.3
09 21.03 С 4 10 км мгла 9/4 450 м
[Cu hum As op Cs]
+25.4 +23.5 89 +34 +34 очень
душно
1009.5 1009.3
12 21.03 В 3 8000 м мгла 4/3 450 м
[Cu Sc Cs]
+25.9 +23.7 88 +35 +36 очень
душно
1011.3 1011.1 +25.3
15 21.03 С 5 12 км 1/1 500 м
[Cu hum]
+29.1 +23.8 73 +40 +48 очень
душно
1012.6 1012.4
18 21.03 С 7 12 км мгла 1/1 500 м
[Cu hum]
+30.7 +23.7 66 +42 +47 опасность
перегрева
1010.5 1010.3
21 21.03 С 10 12 км мгла 3/1 500 м
[Cb cap Ci ing]
+28.9 +23.0 71 +39 +39 очень
душно
1008.7 1008.5
00 22.03 С 5 12 км мгла 5/5 300 м
[Sc]
+26.1 +22.6 81 +34 +34 очень
душно
1009.9 1009.7 +30.8
03 22.03 С 6 12 км мгла 9/9 360 м
[Sc]
+26.1 +22.6 81 +34 +34 очень
душно
1012.2 1012.0
06 22.03 СВ 4 12 км мгла 9/9 360 м
[St]
+26.0 +22.5 81 +34 +34 очень
душно
1011.5 1011.3
09 22.03 С 5 12 км мгла 8/8 360 м
[St]
+25.9 +22.7 83 +34 +34 очень
душно
1010.7 1010.5
12 22.03 С 4 11 км мгла 4/4 400 м
[Sc]
+25.8 +23.3 86 +35 +35 очень
душно
1011.8 1011.6 +25.5
15 22.03 С 5 12 км мгла 6/6 450 м
[Sc diur, vesp]
+29.3 +23.4 71 +40 +43 очень
душно
1013.5 1013.3
18 22.03 С 11 13 км мгла 10/3 450 м
[Cu Sc Ac As Cs]
+30.5 +23.7 67 +42 +42 опасность
перегрева
1011.7 1011.5
21 22.03 С 10 12 км мгла 8/3 400 м
[St As op Cs]
+28.8 +23.0 71 +39 +39 очень
душно
1009.6 1009.4
03 23.03 С 5 12 км 4/1 450 м
[Sc Ci fib]
+26.0 +22.5 81 +34 +34 очень
душно
1013.1 1012.9
06 23.03 С 5 12 км мгла 9/1 450 м
[Cu Sc Ac As Ci fib]
+25.9 +22.6 82 +34 +34 очень
душно
1012.6 1012.4
09 23.03 СВ 5 11 км мгла 10/1 450 м
[Sc diur, vesp As op]
+26.1 +22.4 80 +34 +34 очень
душно
1011.4 1011.2
12 23.03 СВ 4 12 км мгла 10/6 450 м
[Frnb As op Cs]
+26.0 +23.2 85 +35 +35 очень
душно
1012.9 1012.7 +25.7
15 23.03 С 6 12 км 3/3 600 м
[Cu hum]
+28.8 +24.7 79 +41 +46 опасность
перегрева
1014.2 1014.0
18 23.03 С 8 12 км мгла 5/3 600 м
[Cu hum Ci fib]
+31.0 +24.0 66 +43 +45 опасность
перегрева
1011.6 1011.4
21 23.03 С 9 12 км мгла 6/3 500 м
[Cu hum Ci fib]
+29.4 +21.3 62 +37 +38 очень
душно
1009.6 1009.4
06 24.03 С 4 12 км мгла 3/3 500 м
[Cu hum]
+26.0 +23.7 87 +35 +35 очень
душно
1011.5 1011.3
09 24.03 СВ 3 12 км мгла 1/1 300 м
[Sc diur, vesp Ac trans]
+25.5 +23.7 90 +35 +35 очень
душно
1010.6 1010.4
12 24.03 В 2 9000 м мгла 8/4 450 м
[Frnb Ac trans Cs]
+25.2 +23.8 92 +34 +35 очень
душно
1012.1 1011.9 +25.2
15 24.03 СВ 2 10 км мгла 4/1 600 м
[Cu hum Ci fib]
+31.4 +23.5 63 +42 +56 опасность
перегрева
1013.3 1013.1

 

Местоположение метеостанции Картахена (Колумбия): широта 10.45 долгота -75.51 высота над уровнем моря 12 м.

В архиве по умолчанию представлена погода в Картахене за последнюю неделю. Архивные данные за месяц целиком и за предыдущие месяцы, начиная с января 2011 года, Вы можете получить, выбрав интересующий диапазон дат из раскрывающегося списка и нажав кнопку "Ввод!".


*Определитесь, кто Вы:
робот инопланетянин человек

Внимание! Время в таблицах - всемирное. Для получения местного времени необходимо прибавить поправку, которая равна -5 ч.

Смотрите также архив погоды в соседних городах и на ближайших метеорологических станциях:

Погода в Барранкилье (Колумбия) (93 км)
Погода в Санта-Марте (Колумбия) (159 км)
Погода в Монтерии (Колумбия) (185 км)
Погода в Вальедупаре (Колумбия) (247 км)
Погода в Риоаче (Колумбия) (306 км)
Погода в Апартадо (Колумбия) (320 км)
Погода в Маракайбо аэропорту (Венесуэла) (414 км)
Погода в Маракайбо (Венесуэла) (422 км)
Погода в Барранкабермехе (Колумбия) (425 км)
Погода в Кукуте (Колумбия) (432 км)

Пояснения к столбцам:

Ветер - указаны скорость ветра в м/с - средняя за 10 мин, порывы в срок и между сроками (в фигурных скобках) и направление, откуда дует ветер: С - северный, СВ - северо-восточный, В - восточный, ЮВ - юго-восточный, Ю - южный, ЮЗ - юго-западный, З - западный, СЗ - северо-западный.
Видимость - горизонтальная дальность видимости в метрах или километрах. При видимости от 1 до 10 км при отсутствии осадков обычно наблюдается дымка, при ухудшении видимости до 1 км и менее - туман. В сухую погоду видимость может ухудшаться дымом, пылью или мглою.
Явления - указаны атмосферные явления, наблюдавшиеся в срок или в последний час перед сроком; фигурными скобками обозначены явления, наблюдавшиеся между сроками (за 1-3 часа до срока); квадратными скобками обозначены град или гололедные отложения с указанием их диаметра в мм.
Облачность - указаны через наклонную черту общая и нижняя облачность в баллах и высота нижней границы облаков в метрах; квадратными скобками обозначены формы облаков: Ci - перистые, Cs - перисто-слоистые, Cc - перисто-кучевые, Ac - высококучевые, As - высокослоистые, Sc - слоисто-кучевые, Ns - слоисто-дождевые, Cu - кучевые, Cb - кучево-дождевые. Подробнее классификацию облаков см. в Атласе облаков (PDF).
T - Температура воздуха - температура, измеренная на высоте 2 м над землей.
Td - Температура точки росы - температура, при понижении до которой содержащийся в воздухе водяной пар достигнет насыщения.
f - Относительная влажность воздуха - влажноcть воздуха, измеренная на высоте 2 м над землей.
Te - Эффективная температура - температура, которую ощущает одетый по сезону человек в тени. Характеристика душности погоды. При расчете учитывается влияние влажности воздуха и скорости ветра на теплоощущения человека.
Tes - Эффективная температура на солнце - температура, которую ощущает человек, с поправкой на солнечный нагрев. Характеристика знойности погоды. Зависит от высоты солнца над горизонтом, облачности и скорости ветра. Ночью, в пасмурную погоду, а также при ветре 12 м/с и более поправка равна нулю.
P - Атмосферное давление - приведенное к уровню моря атмосферное давление.
Po - Атмосферное давление - измеренное на уровне метеостанции атмосферное давление.
Tmin - Минимальная температура - минимум температуры воздуха на высоте 2 м над землей.
Tmax - Максимальная температура - максимум температуры воздуха на высоте 2 м над землей.
R - Количество осадков - Количество выпавших осадков за период времени, мм. При наведении курсора мыши на число - период времени, за который выпало указанное количество осадков.
R24 - Количество осадков - Количество выпавших осадков за 24 часа, мм.
S - Снежный покров - Высота снежного покрова, см. При наведении курсора мыши на число - состояние снежного покрова и степень покрытия местности в баллах.